カタログに戻る

GEESAT 6-08

運用中通信LEO
NORAD 65720·PAYLOAD·🇨🇳 China

打ち上げ Sep 24, 2025 から Yellow Sea Launch Area

Loading…

次のパス (今後24時間)

TLE

最新Source: Space-Track

元期: Sep 14, 2026, 10:04 UTC

1 65720U 25214J   26257.41993538  .00001060  00000-0  15442-3 0  9994
2 65720  49.9902 254.9501 0009518 200.0316 160.0250 14.83592165 52753

AllMySatでGEESAT 6-08をリアルタイム追跡

Download on the App Store